Flag for India Weather past 2 weeks in Bhinga, Uttar Pradesh, India

Now
81 °F

Haze.


Feels Like: 83 °F
Forecast: 71 / 99 °F
Wind: 2 mph from North

Location: Lucknow / Amausi

Current Time: Mar 27, 2015 at 8:33:08 AM

Latest Report: Mar 27, 2015 at 8:00 AM


Visibility: 2 mi

Pressure: 29.95 "Hg

Humidity: 62%

Dew point: 66 °F

Location of BhingaLocation

Historic Weather in Bhinga — Graph

°F

Bhinga temperature yesterday

Maximum temperature yesterday: 100 °F (at 2:30 PM)
Minimum temperature yesterday: 68 °F (at 5:30 AM)
Average temperature yesterday: 86 °F

Past Weeks' High & Low Weather Summary

 TemperatureHumidityPressure
High100 °F (Mar 26, 2:30 PM)100% (Mar 16, 7:00 AM)30.12 "Hg (Mar 16, 7:00 AM)
Low54 °F (Mar 12, 6:30 AM)25% (Mar 26, 4:00 PM)29.53 "Hg (Mar 22, 3:00 PM)
Average76 °F61%29.93 "Hg
* Reported Mar 12 6:30 AM — Mar 27 7:00 AM, Bhinga, Weather by CustomWeather, © 2015

Note: Actual official high and low records may vary slightly from our data, if they occured in-between our weather recording intervals... More about our weather records

Advertising

Bhinga weather history for previous 24 hours

 ConditionsComfort  
Time TempWeatherWind HumidityBarometerVisibility
7:00 AM
Fri, Mar 27
82 °FHaze.6 mph55%29.92 "Hg2 mi
6:30 AM73 °FHaze.5 mph69%29.92 "Hg2 mi
6:00 AM73 °FHaze.2 mph74%29.89 "Hg2 mi
5:30 AM73 °FHaze.5 mph74%29.89 "Hg2 mi
5:00 AM73 °FPassing clouds.3 mph74%29.89 "Hg2 mi
4:00 AM75 °FPassing clouds.No wind69%29.89 "Hg2 mi
3:00 AM77 °FHaze.No wind65%29.89 "Hg2 mi
2:00 AM79 °FHaze.No wind61%29.89 "Hg2 mi
1:00 AM77 °FHaze.No wind65%29.92 "Hg2 mi
12:00 AM77 °FHaze.No wind61%29.92 "Hg2 mi
11:00 PM
Thu, Mar 26
79 °FHaze.No wind61%29.92 "Hg3 mi
10:00 PM79 °FHaze.No wind61%29.92 "Hg3 mi
9:00 PM81 °FHaze.No wind54%29.89 "Hg3 mi
8:30 PM82 °FHaze.No wind55%29.89 "Hg3 mi
8:00 PM82 °FPassing clouds.No wind55%29.89 "Hg3 mi
7:30 PM84 °FPassing clouds.No wind48%29.89 "Hg3 mi
7:00 PM88 °FPassing clouds.No wind40%29.86 "Hg3 mi
6:30 PM91 °FScattered clouds.No wind34%29.86 "Hg3 mi
6:00 PM93 °FScattered clouds.No wind34%29.86 "Hg3 mi
5:30 PM95 °FScattered clouds.No wind34%29.86 "Hg3 mi
5:00 PM97 °FScattered clouds.No wind32%29.86 "Hg3 mi
4:30 PM100 °FScattered clouds.No wind27%29.83 "Hg3 mi
4:00 PM100 °FScattered clouds.No wind25%29.86 "Hg3 mi
3:30 PM99 °FScattered clouds.No wind29%29.86 "Hg3 mi
3:00 PM99 °FHaze.No wind29%29.86 "Hg3 mi
2:30 PM100 °FHaze.2 mph29%29.86 "Hg3 mi
2:00 PM99 °FHaze.2 mph29%29.89 "Hg3 mi
1:30 PM97 °FHaze.2 mph30%29.92 "Hg3 mi
1:00 PM97 °FHaze.2 mph30%29.92 "Hg3 mi
12:30 PM97 °FHaze.2 mph30%29.92 "Hg2 mi
12:00 PM95 °FHaze.2 mph34%29.95 "Hg2 mi
11:30 AM95 °FHaze.2 mph36%29.95 "Hg2 mi
11:00 AM93 °FHaze.No wind39%29.98 "Hg2 mi
10:30 AM93 °FHaze.No wind44%29.98 "Hg2 mi
10:00 AM91 °FHaze.No wind44%29.98 "Hg2 mi
9:30 AM90 °FHaze.No wind46%29.92 "Hg1 mi
9:00 AM84 °FHaze.No wind58%29.98 "Hg1 mi
8:00 AM75 °FHaze.No wind74%29.95 "Hg1 mi
Weather by CustomWeather, © 2015

See weather overviewHow to use our weather pages